Regional Weather Roundup
Issued by NWS

Current Version | Previous Version | Text Only | Print | Product List | Glossary On
Versions: 1 2 3 4 5 6 7 8 9 10 11 12 13 14 15 16 17 18 19 20 21 22 23 24 25 26 27 28
000
ASUS43 KMPX 261610
RWRMN
WEATHER ROUNDUP FOR MINNESOTA
NATIONAL WEATHER SERVICE TWIN CITIES/CHANHASSEN MN
1100 AM CDT TUE OCT 26 2021


NOTE: "FAIR" INDICATES FEW OR NO CLOUDS BELOW 12,000 FEET WITH NO
SIGNIFICANT WEATHER AND/OR OBSTRUCTIONS TO VISIBILITY. N/A MEANS
CURRENT SKY AND/OR WEATHER CONDITIONS ARE NOT AVAILABLE.

MNZ060>063-068>070-261700-
   Twin Cities Metro

CITY           SKY/WX    TMP DP  RH WIND       PRES   REMARKS
TWIN CITIES    PTSUNNY   45  34  65 SE15      30.08F
ST PAUL        SUNNY     47  35  63 SE14      30.10F
CRYSTAL        SUNNY     45  33  63 SE12G21   30.07F
BLAINE         PTSUNNY   46  36  66 SE12G18   30.08F
LAKEVILLE      MOSUNNY   45  34  65 SE13      30.07F
EDEN PRAIRIE   SUNNY     44  34  67 SE13G22   30.05F
SOUTH ST PAUL  SUNNY     45  35  67 SE7       30.09F
LAKE ELMO      FAIR      43  34  70 SE8       30.11F
$$
MNZ001>005-007-008-013>017-022>024-027-028-261700-
   Northwest Minnesota

CITY           SKY/WX    TMP DP  RH WIND       PRES   REMARKS
BEMIDJI        SUNNY     42  34  73 SE17G24   29.97S
HALLOCK        SUNNY     48  36  61 SE26G38   29.83S
ROSEAU         SUNNY     45  36  70 SE16G24   29.92S
WARROAD        SUNNY     43  36  75 SE16G24   29.95S
THIEF RVR FALL SUNNY     46  34  62 SE23G32   29.88F
CROOKSTON      SUNNY     46  34  61 S26G37    29.85S
FOSSTON        SUNNY     45  32  61 SE17G26   29.88F
DETROIT LAKES  SUNNY     43  36  75 SE17G28   29.89S
MOORHEAD       SUNNY     48  36  61 SE25G41   29.83F
PARK RAPIDS    SUNNY     43  32  65 SE20G33   29.96F
MAHNOMEN       FAIR      45  33  62 SE24G33   29.87F
$$
MNZ006-009>011-018-025>026-261700-
   North Central Minnesota

CITY           SKY/WX    TMP DP  RH WIND       PRES   REMARKS
BAUDETTE       SUNNY     41  34  76 SE17G24   30.00F
FLAG ISLAND    SUNNY     43  34  70 SE20G28   29.97S
INTL FALLS     MOSUNNY   41  33  73 SE15      30.07F
WASKISH        SUNNY     45  36  70 SE13G20   29.98F
BIG FORK       SUNNY     43  34  70 SE10G16   30.11F
LONGVILLE      SUNNY     39  34  81 SE8       30.02F
GRAND RAPIDS   SUNNY     39  33  79 SE9       30.09S
CRANE LAKE     MOSUNNY   43  34  70 S6        30.13S
ORR              N/A     41  34  75 SE9       30.08S
COOK           MOSUNNY   41  34  75 SE7       30.10S
$$
MNZ012-019>021-037-261700-
   Northeast Minnesota

CITY           SKY/WX    TMP DP  RH WIND       PRES   REMARKS
DULUTH         MOSUNNY   42  34  73 SE15      30.12F
ELY            PTSUNNY   43  36  75 SE18G25   30.11F
HIBBING        MOSUNNY   41  34  76 SE9G17    30.11S
EVELETH        MOSUNNY   41  34  75 SE10G16   30.12S
DULUTH HARBOR  MOSUNNY   43  36  75 E9G16     30.14F
TWO HARBORS    MOSUNNY   45  36  70 E14       30.14F
GRAND MARAIS     N/A     46  34  62 E10G20    30.21S
G MARAIS ARPRT CLOUDY    39  32  75 CALM      30.17S
$$
MNZ029>031-032-039>041-046>048-054>057-064-261700-
   West Central Minnesota

CITY           SKY/WX    TMP DP  RH WIND       PRES   REMARKS
FERGUS FALLS   MOSUNNY   48  36  61 SE28G33   29.85F
WHEATON        MOSUNNY   46  36  66 SE29G35   29.86F
MORRIS         MOSUNNY   46  34  61 SE32G40   29.90F
ALEXANDRIA     MOSUNNY   45  34  65 SE23G35   29.94F
ELBOW LAKE     FAIR      46  35  66 SE26G37   29.90S
WADENA         MOSUNNY   43  30  61 SE22G29   29.94F
GLENWOOD       MOSUNNY   46  36  66 SE26      29.94F
APPLETON       MOSUNNY   50  36  57 SE18G26   29.89F
BENSON         MOSUNNY   46  36  66 S17G31    29.92F
ORTONVILLE     MOSUNNY   46  37  71 SE23G36   29.85F
MADISON        MOSUNNY   52  37  58 SE32G39   29.88F
WILLMAR        FAIR      46  34  61 SE26G35   29.98F
$$
MNZ033>034-036-042>043-049>051-058-059-261700-
   Central Minnesota

CITY           SKY/WX    TMP DP  RH WIND       PRES   REMARKS
ST CLOUD       SUNNY     44  33  65 SE14G25   30.04F
SAUK CENTRE    FAIR      44  33  66 SE16G25   29.98F
PAYNESVILLE    MOSUNNY   46  34  61 SE17G25   29.99F
AITKIN         MOSUNNY   41  34  75 SE14      30.07F
PINE RIVER     SUNNY     45  36  70 SE15G21   30.04F
BRAINERD       SUNNY     45  32  60 SE13G26   30.03F
STAPLES        MOSUNNY   46  34  61 SE14G20   29.98F
LONG PRAIRIE   FAIR      43  34  70 SE17G23   29.98F
LITTLE FALLS   SUNNY     43  32  65 SE16G22   30.02F
LITCHFIELD     MOSUNNY   48  27  43 SE20      30.00F
BUFFALO        SUNNY     45  34  65 SE14G22   30.04F
MAPLE LAKE     SUNNY     46  32  57 SE5       30.05F
HUTCHINSON     SUNNY     48  36  62 SE21G26   30.01F
$$
MNZ037-044-045-052-053-261700-
   East Central Minnesota

CITY           SKY/WX    TMP DP  RH WIND       PRES   REMARKS
PRINCETON        N/A     45  34  65 SE9       30.07F
MORA           SUNNY     39  32  75 SE7       30.10F
CAMBRIDGE      SUNNY     46  34  61 SE6       30.09F
RUSH CITY      MOSUNNY   42  33  72 SE9       30.11S
MOOSE LAKE     MOSUNNY   41  34  75 SE6       30.10F
HINCKLEY       MOSUNNY   41  34  75 CALM      30.11F
CLOQUET        MOSUNNY   37  32  81 SE6       30.12S
MCGREGOR       MOSUNNY   39  34  81 SE9       30.09F
$$
MNZ071>073-080-081-089-090-097-098-261700-
   Southwest Minnesota

CITY           SKY/WX    TMP DP  RH WIND       PRES   REMARKS
MONTEVIDEO     MOSUNNY   46  34  61 S22G29    29.91F
GRANITE FALLS  MOSUNNY   49  38  65 SE26G33   29.94F
CANBY          MOSUNNY   50  38  64 E24G32    29.86F
MARSHALL       MOSUNNY   49  38  65 S25G36    29.90F
REDWOOD FALLS  MOSUNNY   48  36  63 SE22G38   29.96F
OLIVIA         MOSUNNY   46  36  66 SE24G30   29.95F
PIPESTONE      SUNNY     46  39  76 S23G37    29.82F
WINDOM         SUNNY     46  37  71 SE26G36   29.94F
WORTHINGTON    SUNNY     46  39  76 SE28G39   29.90F
JACKSON        SUNNY     46  36  66 SE23G29   29.97F
TRACY          MOSUNNY   48  35  59 SE29G35   29.91F
SLAYTON        SUNNY     46  37  73 SE32G39   29.89F
$$
MNZ065>067-074>077-082>085-091>093-261700-
   South Central Minnesota

CITY           SKY/WX    TMP DP  RH WIND       PRES   REMARKS
MANKATO        MOSUNNY   47  35  63 SE21G26   30.03F
NEW ULM        MOSUNNY   46  36  66 SE24G31   29.99F
ST JAMES       SUNNY     48  36  61 SE22G32   29.99F
FAIRMONT       SUNNY     48  37  65 SE24G30   30.00F
GLENCOE        MOSUNNY   47  33  58 SE14G21   30.03F
FARIBAULT      MOSUNNY   46  36  66 SE12G20   30.06F
OWATONNA       MOSUNNY   48  36  61 SE15      30.05F
WASECA         MOSUNNY   46  36  66 SE15G23   30.06
ALBERT LEA     MOSUNNY   46  37  71 SE18G24   30.05F
$$
MNZ078>079-086>088-094>096-261700-
   Southeast Minnesota

CITY           SKY/WX    TMP DP  RH WIND       PRES   REMARKS
ROCHESTER      MOSUNNY   47  35  63 SE17      30.10F
RED WING       MOSUNNY   46  36  66 SE9       30.10F
STANTON        MOSUNNY   46  35  65 SE9       30.07F
DODGE CENTER     N/A     46  34  61 SE15G23   30.07F
WINONA         MOSUNNY   41  36  81 SE6       30.15F
AUSTIN         MOSUNNY   46  37  71 SE18      30.07F
PRESTON        MOSUNNY   46  35  65 SE14      30.10F
$$
ABBREVIATIONS USED IN REMARKS
   TC - TEMPERATURES IN CELSIUS
  WCI - WIND CHILL INDEX
   HX - HEAT INDEX
  VSB - VISIBILITY
$$



USA.gov is the U.S. government's official web portal to all federal, state and local government web resources and services.